Hourly Data Report for December 16, 2016

TORONTO CITY
ONTARIO

43°40'00.000" N
79°24'00.000" W
112.50 m
6158355
71508
XTO

Download Data

Hourly Data (December 2016)
Hourly Data Report for December 16, 2016
TIME
LST
Temp Definition
°C
Dew Point Definition
°C
Rel Hum Definition
%
Precip. Amount Definition
mm

Wind Dir Definition
10's deg

Wind Spd Definition
km/h
Visibility Definition
km
Stn Press Definition
kPa
Hmdx Definition


Wind Chill Definition


Weather Definition


00:00 -9.3 -11.2 86 0.0 LegendMM LegendMM   100.90     LegendNANA
01:00 -9.4 -11.2 87 0.2 LegendMM LegendMM   100.89     LegendNANA
02:00 -8.7 -10.3 88 0.0 LegendMM LegendMM   100.92     LegendNANA
03:00 -8.2 -10.0 87 0.2 LegendMM LegendMM   100.95     LegendNANA
04:00 -8.7 -10.9 84 0.0 LegendMM LegendMM   100.94     LegendNANA
05:00 -8.8 -11.5 81 0.0 LegendMM LegendMM   100.95     LegendNANA
06:00 -8.5 -11.6 79 0.0 LegendMM LegendMM   101.01     LegendNANA
07:00 -7.8 -11.3 76 0.0 LegendMM LegendMM   101.04     LegendNANA
08:00 -7.4 -11.6 72 0.0 LegendMM LegendMM   101.09     LegendNANA
09:00 -7.4 -11.6 72 0.0 LegendMM LegendMM   101.13     LegendNANA
10:00 -6.9 -11.4 71 0.0 LegendMM LegendMM   101.16     LegendNANA
11:00 -6.4 -12.0 64 0.0 LegendMM LegendMM   101.17     LegendNANA
12:00 -5.5 -13.7 53 0.0 LegendMM LegendMM   101.10     LegendNANA
13:00 -5.5 -16.7 41 0.0 LegendMM LegendMM   101.00     LegendNANA
14:00 -5.4 -14.1 50 0.0 LegendMM LegendMM   100.98     LegendNANA
15:00 -5.7 -13.2 55 0.0 LegendMM LegendMM   101.00     LegendNANA
16:00 -6.1 -13.7 55 0.0 LegendMM LegendMM   100.93     LegendNANA
17:00 -6.2 -14.0 54 0.0 LegendMM LegendMM   100.90     LegendNANA
18:00 -5.8 -13.4 55 0.0 LegendMM LegendMM   100.85     LegendNANA
19:00 -5.4 -11.3 63 0.0 LegendMM LegendMM   100.80     LegendNANA
20:00 -5.6 -10.6 68 0.0 LegendMM LegendMM   100.77     LegendNANA
21:00 -6.1 -7.7 88 0.4 LegendMM LegendMM   100.68     LegendNANA
22:00 -5.8 -7.0 91 0.7 LegendMM LegendMM   100.55     LegendNANA
23:00 -5.0 -6.3 90 1.3 LegendMM LegendMM   100.49     LegendNANA

Notes on Data Quality.

Legend

  • E = Estimated
  • M = Missing
  • NA = Not Available*
  • [empty] = Indicates an unobserved value
Date modified: